Regional Weather Roundup
Issued by NWS Kansas City/Pleasant Hill, MO

Home | Current Version | Previous Version | Text Only | Print | Product List | Glossary On
Versions: 1 2 3 4 5 6 7 8 9 10 11 12 13 14 15 16 17 18 19 20 21 22 23 24 25 26 27 28 29 30 31 32 33 34 35 36 37 38 39 40 41 42 43 44 45 46 47 48 49 50
000
ASUS43 KEAX 301010
RWREAX

WEATHER ROUNDUP FOR EASTERN KANSAS AND NORTHWEST MISSOURI
NATIONAL WEATHER SERVICE KANSAS CITY/PLEASANT HILL MO
400 AM CST FRI JAN 30 2015

KSZ040-057-103>105-MOZ028-029-037-043-301100-
...KANSAS CITY METROPOLITAN AREA...

CITY           SKY/WX    TMP DP  RH WIND       PRES   REMARKS
K.C. INTL      CLEAR     23  20  88 N8        30.54R WCI  14
K.C. DOWNTOWN  CLEAR     26  21  81 N3        30.55R
LEES SUMMIT    CLEAR     25  20  81 N3        30.53S
OLATHE - IXD   CLEAR     21  18  88 NW6       30.54S WCI  13
OLATHE - OJC   CLEAR     24  21  88 NW5       30.52S WCI  18
LAWRENCE       CLEAR     15  13  91 NW7       30.55F WCI   5

$$

MOZ001>008-011>017-020>025-030>033-038>040-044>046-053-054-301100-
...NORTHERN AND CENTRAL MISSOURI...

CITY           SKY/WX    TMP DP  RH WIND       PRES   REMARKS
ST. JOSEPH     PTCLDY    15  13  91 CALM      30.56S FOG
MOSBY            N/A     19  19 100 CALM      30.55S
WARRENSBURG    CLEAR     25  21  86 NW5       30.54R WCI  19
WHITEMAN AFB   CLEAR     24  20  85 N7        30.52S WCI  16
CLINTON        CLEAR     25  23  93 CALM      30.53S
SEDALIA        CLEAR     27  21  78 NW8       30.52S WCI  19
WARSAW         NOT AVBL
MARSHALL       CLEAR     28  25  86 N6        30.53S WCI  22
CHILLICOTHE      N/A     26  20  77 N3        30.55R
MOBERLY        CLEAR     25  19  80 NW6       30.52R WCI  18
KIRKSVILLE     MOCLDY    23  20  88 N9        30.52R WCI  13

$$

MOZ041-047>049-056>058-063>065-088>090-097-301100-
...EASTERN AND SOUTHERN MISSOURI...

CITY           SKY/WX    TMP DP  RH WIND       PRES   REMARKS
ST. LOUIS INTL MOCLDY    31  20  63 NW9       30.48S WCI  23
SPIRIT OF STL  MOCLDY    28  20  71 NW5       30.48S WCI  23
COLUMBIA       CLEAR     25  20  81 NW7       30.50R WCI  17
JEFFERSON CITY CLEAR     27  20  75 NW3       30.52S
MEXICO         PTCLDY    27  25  93 N6        30.49R WCI  20
ROLLA          CLEAR     26  20  77 NW9       30.45S WCI  17
LEBANON        CLEAR     27  23  86 CALM      30.48S
OSAGE BEACH    CLEAR     27  19  74 NW3       30.50S
SPRINGFIELD    CLEAR     23  20  88 N8        30.48F WCI  14
BRANSON        CLEAR     25  23  93 N6        30.48F WCI  18
NEVADA         CLEAR     25  23  93 N5        30.53F WCI  19
JOPLIN         CLEAR     26  23  88 N5        30.51F WCI  20
WEST PLAINS    CLEAR     28  22  78 N5        30.45F WCI  23

$$

IAZ060-094-KSZ022-034>040-054-083-096-NEZ052-066-093-301100-
...KANSAS...SOUTHEAST NEBRASKA AND IOWA...

CITY           SKY/WX    TMP DP  RH WIND       PRES   REMARKS
TOPEKA         PTCLDY    20  15  81 CALM      30.56S
MANHATTAN      PTCLDY    17  15  92 CALM      30.54F
EMPORIA        CLEAR     20  19  96 NW3       30.52F
CHANUTE        PTCLDY    20  18  92 N5        30.53F WCI  13
WICHITA        MOCLDY    28  22  78 NE5       30.51F WCI  23
OMAHA          CLEAR     22  19  89 NW3       30.55S
LINCOLN        PTCLDY    17  15  92 CALM      30.54F
FALLS CITY     PTCLDY    17  15  92 NW5       30.55S WCI  10
LAMONI         CLEAR     21  17  84 N7        30.51S WCI  12
DES MOINES     CLEAR     20  13  74 NE6       30.53F WCI  12

$$



USA.gov is the U.S. government's official web portal to all federal, state and local government web resources and services.